{"data":{"norad_id":57088,"intl_designator":"2023-088AS","name":"STARLINK-6257","alt_names":[],"object_type":"PAYLOAD","status":"ACTIVE","operator":null,"country":"US","launch_date":"2023-06-22","launch_site_code":"AFWTR","launch_vehicle":null,"mission":null,"orbit_class":"UNKNOWN","rcs_meters":null,"size_class":null,"mass_kg":null,"dimensions":null,"purposes":["comms"],"wikipedia_slug":null,"has_3d_model":false,"image_url":null,"decayed_at":null,"tle_current":{"epoch":"2026-09-19T21:44:01.959936Z","epoch_age_seconds":172366,"freshness":"FRESH","line1":"1 57088U 23088AS  26262.90557824 -.00000253  00000+0  34037-6 0  9990","line2":"2 57088  43.0002  79.2510 0002250 247.3122 112.7492 15.27574689180204","mean_motion":15.27574689,"eccentricity":0.000225,"inclination_deg":43.0002,"raan_deg":79.251,"arg_perigee_deg":247.3122,"mean_anomaly_deg":112.7492,"bstar":3.4037e-7,"rev_number":18020,"period_min":94.26707645586,"perigee_km":481.52122868055,"apogee_km":484.60876958015,"semimajor_km":6861.2019991304,"source":"CELESTRAK","updated_at":"2026-09-21T09:00:33.556306Z"}}}